Regional Weather Roundup
Issued by NWS

Home | Current Version | Previous Version | Text Only | Print | Product List | Glossary On
Versions: 1 2 3 4 5 6 7 8 9 10 11 12 13 14 15 16 17 18 19 20 21 22 23 24 25 26 27 28 29 30 31 32 33 34 35 36 37 38 39 40 41 42 43 44 45 46 47 48 49 50
968
ASUS46 KSEW 270610
RWRWA

WASHINGTON REGIONAL WEATHER ROUNDUP
NATIONAL WEATHER SERVICE SEATTLE WA
1100 PM PDT FRI AUG 26 2016

NOTE:"FAIR" INDICATES FEW OR NO CLOUDS BELOW 12,000 FEET WITH NO
SIGNIFICANT WEATHER AND/OR OBSTRUCTIONS TO VISIBILITY.

WAZ505-507>509-270700-
SEATTLE, TACOMA, EVERETT, AND VICINITY

CITY           SKY/WX    TMP DP  RH WIND       PRES   REMARKS
EVERETT        PTCLDY    76  47  35 NE6       29.82F
6HR MIN TEMP:  75; 6HR MAX TEMP:  87;

BOEING FIELD   CLEAR     79  45  29 W6        29.80S
RENTON         CLEAR     73  55  53 SE5       29.79S
6HR MIN TEMP:  73; 6HR MAX TEMP:  91;

SEATAC AIRPORT PTCLDY    77  48  35 SE6       29.81F
6HR MIN TEMP:  77; 6HR MAX TEMP:  92;

JBLM-MCCHORD   CLEAR     66  53  63 S3        29.81S
6HR MIN TEMP:  66; 6HR MAX TEMP:  92;

PUYALLUP       CLOUDY    72  54  53 CALM      29.83S
BREMERTON      CLEAR     66  54  63 CALM      29.84F
6HR MIN TEMP:  64; 6HR MAX TEMP:  91;

JBLM-FT LEWIS  CLEAR     69  51  53 SE7       29.80F
6HR MIN TEMP:  68; 6HR MAX TEMP:  92;

TACOMA NARROWS CLEAR     76  48  37 S6        29.80F
6HR MIN TEMP:  74; 6HR MAX TEMP:  90;

$$

WAZ001-503-506-510-514-515-270700-
NORTH INTERIOR

CITY           SKY/WX    TMP DP  RH WIND       PRES   REMARKS
BELLINGHAM     PTCLDY    70  53  54 S7G17     29.76S
6HR MIN TEMP:  70; 6HR MAX TEMP:  87;

FRIDAY HARBOR  PTCLDY    57  50  77 CALM      29.78F
6HR MIN TEMP:  56; 6HR MAX TEMP:  82;

EASTSOUND      PTCLDY    64  52  63 CALM      29.75S
PORT ANGELES   CLEAR     67  49  52 NW8       29.80F
6HR MIN TEMP:  66; 6HR MAX TEMP:  82;

EDIZ HOOK      FAIR      63  50  62 W13G22    29.79F
6HR MIN TEMP:  59; 6HR MAX TEMP:  72;

PORT TOWNSEND  FAIR      63  55  77 CALM      29.79F
NAS WHIDBEY    PTCLDY    63  48  58 CALM      29.82F
6HR MIN TEMP:  62; 6HR MAX TEMP:  80;

ARLINGTON      PTCLDY    66  48  52 N6        29.82S
6HR MIN TEMP:  66; 6HR MAX TEMP:  91;

BURLINGTON     CLEAR     66  54  63 CALM      29.78F
$$

WAZ020-022-039-040-504-511-512-270700-
SOUTHWEST INTERIOR

CITY           SKY/WX    TMP DP  RH WIND       PRES   REMARKS
SHELTON        CLEAR     72  50  45 W7        29.78F
6HR MIN TEMP:  72; 6HR MAX TEMP:  94;

OLYMPIA        CLEAR     69  48  47 S10       29.80F
6HR MIN TEMP:  68; 6HR MAX TEMP:  93;

CHEHALIS       FAIR      72  52  49 SW6       29.83S
KELSO          CLEAR     72  54  53 NE3       29.85R
6HR MIN TEMP:  72; 6HR MAX TEMP:  95;

VANCOUVER      CLEAR     80  49  33 CALM      29.82R
6HR MIN TEMP:  79; 6HR MAX TEMP:  95;

SCAPPOOSE, OR  CLEAR     77  48  35 NE6       29.81S
6HR MIN TEMP:  77; 6HR MAX TEMP:  96;

PORTLAND, OR   CLEAR     80  49  33 N3        29.82R
6HR MIN TEMP:  80; 6HR MAX TEMP:  96;

$$

WAZ021-516-517-270700-
WASHINGTON COAST

CITY           SKY/WX    TMP DP  RH WIND       PRES   REMARKS
FORKS          FOG       56  56 100 W5        29.84S VSB 3/4
6HR MIN TEMP:  56; 6HR MAX TEMP:  79;

HOQUIAM        MOCLDY    60  60 100 SW10      29.85F FOG
6HR MIN TEMP:  59; 6HR MAX TEMP:  75;

ASTORIA, OR    PTCLDY    61  58  90 SW5       29.88R
6HR MIN TEMP:  61; 6HR MAX TEMP:  84;

$$

WAZ019-023-024-040-518-519-270700-
CASCADE MOUNTAINS AND COLUMBIA GORGE

CITY           SKY/WX    TMP DP  RH WIND       PRES   REMARKS
STAMPEDE PASS  PTCLDY    62  41  46 VRB3      29.99F
6HR MIN TEMP:  62; 6HR MAX TEMP:  75;

TROUTDALE, OR  CLEAR     80  49  33 SW6       29.82R
6HR MIN TEMP:  77; 6HR MAX TEMP:  97;

THE DALLES, OR CLEAR     76  43  30 CALM      29.77S
6HR MIN TEMP:  76; 6HR MAX TEMP:  97;

$$

WAZ026-027-041>044-520-521-270700-
EAST SLOPES

CITY           SKY/WX    TMP DP  RH WIND       PRES   REMARKS
OMAK           MOCLDY    76  43  30 CALM      29.74F
6HR MIN TEMP:  74; 6HR MAX TEMP:  90;

WENATCHEE      PTCLDY    78  42  27 NW12      29.77F
6HR MIN TEMP:  76; 6HR MAX TEMP:  88;

ELLENSBURG     MOCLDY    73  45  36 NW10      29.84S
6HR MIN TEMP:  70; 6HR MAX TEMP:  92;

YAKIMA         MOCLDY    73  47  39 SW8       29.80F
6HR MIN TEMP:  69; 6HR MAX TEMP:  93;

$$

WAZ028-034-035-270700-
COLUMBIA BASIN

CITY           SKY/WX    TMP DP  RH WIND       PRES   REMARKS
EPHRATA        MOCLDY    69  47  45 SW5       29.77S
6HR MIN TEMP:  68; 6HR MAX TEMP:  90;

MOSES LAKE     MOCLDY    76  48  37 SW10      29.77F
6HR MIN TEMP:  76; 6HR MAX TEMP:  90;

PASCO          PTCLDY    68  53  58 CALM      29.76F
6HR MIN TEMP:  67; 6HR MAX TEMP:  94;

HERMISTON, OR  CLEAR     69  40  34 S9        29.77F
6HR MIN TEMP:  69; 6HR MAX TEMP:  93;

$$

WAZ036>038-270700-
NORTHEAST WASHINGTON

CITY           SKY/WX    TMP DP  RH WIND       PRES   REMARKS
SPOKANE GEIGER CLOUDY    73  38  27 SW10      29.83F
6HR MIN TEMP:  73; 6HR MAX TEMP:  84;

SPOKANE FELTS  CLOUDY    69  43  38 N3        29.83S
6HR MIN TEMP:  69; 6HR MAX TEMP:  87;

FAIRCHILD AFB  CLOUDY    72  40  31 SW8       29.84F
6HR MIN TEMP:  71; 6HR MAX TEMP:  83;

COEURDALENE,ID CLOUDY    66  45  45 MISG      29.82S
6HR MIN TEMP:  63; 6HR MAX TEMP:  84;

DEER PARK      CLOUDY    65  37  35 CALM      29.83S
6HR MIN TEMP:  65; 6HR MAX TEMP:  84;

$$

WAZ029>033-270700-
SOUTHEAST WASHINGTON

CITY           SKY/WX    TMP DP  RH WIND       PRES   REMARKS
PULLMAN        MOCLDY    61  35  37 CALM      29.90S
6HR MIN TEMP:  59; 6HR MAX TEMP:  84;

LEWISTON, ID   PTCLDY    73  36  25 S7        29.83S
6HR MIN TEMP:  73; 6HR MAX TEMP:  90;

WALLA WALLA    PTCLDY    73  36  25 SE8       29.81F
6HR MIN TEMP:  72; 6HR MAX TEMP:  90;

PENDLETON, OR  PTCLDY    69  36  29 SE12      29.84S
6HR MIN TEMP:  69; 6HR MAX TEMP:  90;

$$




USA.gov is the U.S. government's official web portal to all federal, state and local government web resources and services.